,,,PA_Meas_PMT16A,,PR_Meas_QMR101_102,,RH_Meas_QMH101,,SR_Meas_QMS101,,TA_Meas_QMH101,,GenWind,,GenWind,
date,time,status,PA,status,PR,status,RH,status,SR,status,TA,status,DirAvg,status,SpdAvg,
2010-02-12, 00:00:04,VALID,1002.87,VALID,0,VALID,87.9695,VALID,0,VALID,24.5404,VALID,21,VALID,0.566797,
2010-02-12, 00:01:04,VALID,1002.82,VALID,0,VALID,87.8627,VALID,0,VALID,24.5404,VALID,21,VALID,0.658594,
2010-02-12, 00:02:04,VALID,1002.83,VALID,0,VALID,88.0306,VALID,0,VALID,24.5209,VALID,21,VALID,0.533984,
2010-02-12, 00:03:04,VALID,1002.8,VALID,0,VALID,88.1374,VALID,0,VALID,24.5209,VALID,21,VALID,0.415625,
2010-02-12, 00:04:04,VALID,1002.81,VALID,0,VALID,88.2137,VALID,0,VALID,24.4995,VALID,7,VALID,0.6375,
2010-02-12, 00:05:04,VALID,1002.82,VALID,0,VALID,88.206,VALID,0,VALID,24.5209,VALID,11,VALID,0.496094,
2010-02-12, 00:06:04,VALID,1002.82,VALID,0,VALID,88.1679,VALID,0,VALID,24.4995,VALID,36,VALID,0.660547,
2010-02-12, 00:07:04,VALID,1002.81,VALID,0,VALID,88.1755,VALID,0,VALID,24.4995,VALID,36,VALID,0.759375,
2010-02-12, 00:08:04,VALID,1002.76,VALID,0,VALID,88.2594,VALID,0,VALID,24.5209,VALID,36,VALID,0.688281,
2010-02-12, 00:09:04,VALID,1002.76,VALID,0,VALID,88.4502,VALID,0,VALID,24.48,VALID,36,VALID,0.899609,
2010-02-12, 00:10:04,VALID,1002.73,VALID,0,VALID,88.6028,VALID,0,VALID,24.5013,VALID,36,VALID,0.849609,
2010-02-12, 00:11:04,VALID,1002.75,VALID,0,VALID,88.5875,VALID,0,VALID,24.4995,VALID,37,VALID,0.837109,
2010-02-12, 00:12:04,VALID,1002.71,VALID,0,VALID,88.618,VALID,0,VALID,24.5404,VALID,37,VALID,0.862891,
2010-02-12, 00:13:04,VALID,1002.71,VALID,0,VALID,88.5646,VALID,0,VALID,24.5599,VALID,36,VALID,1.09414,
2010-02-12, 00:14:04,VALID,1002.67,VALID,0,VALID,88.4197,VALID,0,VALID,24.5794,VALID,35,VALID,1.09023,
2010-02-12, 00:15:04,VALID,1002.68,VALID,0,VALID,88.2366,VALID,0,VALID,24.5989,VALID,34,VALID,1.0582,
2010-02-12, 00:16:04,VALID,1002.67,VALID,0,VALID,88.1679,VALID,0,VALID,24.6184,VALID,26,VALID,1.06641,
2010-02-12, 00:17:04,VALID,1002.63,VALID,0,VALID,88.0382,VALID,0,VALID,24.638,VALID,34,VALID,1.12695,
2010-02-12, 00:18:04,VALID,1002.61,VALID,0,VALID,88.2594,VALID,0,VALID,24.6575,VALID,38,VALID,0.937109,
2010-02-12, 00:19:04,VALID,1002.63,VALID,0,VALID,88.4273,VALID,0,VALID,24.677,VALID,41,VALID,1.03359,
2010-02-12, 00:20:04,VALID,1002.63,VALID,0,VALID,88.6028,VALID,0,VALID,24.716,VALID,42,VALID,0.661719,
2010-02-12, 00:21:04,VALID,1002.58,VALID,0,VALID,88.6562,VALID,0,VALID,24.6965,VALID,43,VALID,0.688672,
2010-02-12, 00:22:04,VALID,1002.55,VALID,0,VALID,88.7401,VALID,0,VALID,24.6965,VALID,47,VALID,0.45625,
2010-02-12, 00:23:04,VALID,1002.53,VALID,0,VALID,88.8393,VALID,0,VALID,24.6984,VALID,59,VALID,0.505469,
2010-02-12, 00:24:04,VALID,1002.49,VALID,0,VALID,88.824,VALID,0,VALID,24.677,VALID,61,VALID,0.541797,
2010-02-12, 00:25:04,VALID,1002.49,VALID,0,VALID,89.1216,VALID,0,VALID,24.677,VALID,85,VALID,0.917969,
2010-02-12, 00:26:04,VALID,1002.45,VALID,0,VALID,89.2437,VALID,0,VALID,24.6575,VALID,96,VALID,0.808984,
2010-02-12, 00:27:04,VALID,1002.49,VALID,0,VALID,89.2513,VALID,0,VALID,24.5971,VALID,110,VALID,0.603125,
2010-02-12, 00:28:04,VALID,1002.45,VALID,0,VALID,89.2971,VALID,0,VALID,24.5599,VALID,134,VALID,0.787891,
2010-02-12, 00:29:04,VALID,1002.46,VALID,0,VALID,89.4039,VALID,0,VALID,24.5404,VALID,135,VALID,0.621484,
2010-02-12, 00:30:04,VALID,1002.43,VALID,0,VALID,89.32,VALID,0,VALID,24.5013,VALID,136,VALID,0.860156,
2010-02-12, 00:31:04,VALID,1002.41,VALID,0,VALID,89.5641,VALID,0,VALID,24.5013,VALID,136,VALID,0.739062,
2010-02-12, 00:32:04,VALID,1002.45,VALID,0,VALID,89.7396,VALID,0,VALID,24.5209,VALID,136,VALID,0.471094,
2010-02-12, 00:33:04,VALID,1002.43,VALID,0,VALID,89.732,VALID,0,VALID,24.5209,VALID,137,VALID,0.958203,
2010-02-12, 00:34:04,VALID,1002.46,VALID,0,VALID,89.9303,VALID,0,VALID,24.5404,VALID,136,VALID,1.14258,
2010-02-12, 00:35:04,VALID,1002.43,VALID,0,VALID,89.9914,VALID,0,VALID,24.5599,VALID,131,VALID,1.16445,
2010-02-12, 00:36:04,VALID,1002.41,VALID,0,VALID,89.8617,VALID,0,VALID,24.5599,VALID,132,VALID,1.39609,
2010-02-12, 00:37:04,VALID,1002.36,VALID,0,VALID,89.8159,VALID,0,VALID,24.5209,VALID,137,VALID,1.27773,
2010-02-12, 00:38:04,VALID,1002.31,VALID,0,VALID,89.8388,VALID,0,VALID,24.4995,VALID,145,VALID,1.19219,
2010-02-12, 00:39:04,VALID,1002.27,VALID,0,VALID,89.8388,VALID,0,VALID,24.48,VALID,147,VALID,1.40742,
2010-02-12, 00:40:04,VALID,1002.32,VALID,0,VALID,89.6328,VALID,0,VALID,24.4818,VALID,131,VALID,1.49023,
2010-02-12, 00:41:04,VALID,1002.31,VALID,0,VALID,89.7014,VALID,0,VALID,24.4818,VALID,126,VALID,1.08242,
2010-02-12, 00:42:04,VALID,1002.28,VALID,0,VALID,89.6251,VALID,0,VALID,24.4623,VALID,119,VALID,0.965625,
2010-02-12, 00:43:04,VALID,1002.28,VALID,0,VALID,89.648,VALID,0,VALID,24.4623,VALID,125,VALID,0.817578,
2010-02-12, 00:44:04,VALID,1002.27,VALID,0,VALID,89.6709,VALID,0,VALID,24.4623,VALID,125,VALID,0.646094,
2010-02-12, 00:45:04,VALID,1002.26,VALID,0,VALID,89.6862,VALID,0,VALID,24.4623,VALID,124,VALID,0.403125,
2010-02-12, 00:46:04,VALID,1002.24,VALID,0,VALID,89.6786,VALID,0,VALID,24.4623,VALID,124,VALID,0,
2010-02-12, 00:47:04,VALID,1002.2,VALID,0,VALID,89.6786,VALID,0,VALID,24.4623,VALID,124,VALID,0,
2010-02-12, 00:48:04,VALID,1002.2,VALID,0,VALID,89.7243,VALID,0,VALID,24.4623,VALID,124,VALID,0.00625,
2010-02-12, 00:49:04,VALID,1002.21,VALID,0,VALID,89.732,VALID,0,VALID,24.4409,VALID,124,VALID,0,
2010-02-12, 00:50:04,VALID,1002.22,VALID,0,VALID,89.7091,VALID,0,VALID,24.4428,VALID,124,VALID,0,
2010-02-12, 00:51:04,VALID,1002.2,VALID,0,VALID,89.7014,VALID,0,VALID,24.4623,VALID,124,VALID,0,
2010-02-12, 00:52:04,VALID,1002.17,VALID,0,VALID,89.7167,VALID,0,VALID,24.4642,VALID,124,VALID,0.326953,
2010-02-12, 00:53:04,VALID,1002.16,VALID,0,VALID,89.7625,VALID,0,VALID,24.4623,VALID,138,VALID,0.558984,
2010-02-12, 00:54:04,VALID,1002.14,VALID,0,VALID,89.7091,VALID,0,VALID,24.4818,VALID,174,VALID,1.08438,
2010-02-12, 00:55:04,VALID,1002.14,VALID,0,VALID,89.5412,VALID,0,VALID,24.5209,VALID,154,VALID,1.17031,
2010-02-12, 00:56:04,VALID,1002.18,VALID,0,VALID,89.4191,VALID,0,VALID,24.5599,VALID,144,VALID,1.14727,
2010-02-12, 00:57:04,VALID,1002.18,VALID,0,VALID,89.4497,VALID,0,VALID,24.6203,VALID,147,VALID,0.990625,
2010-02-12, 00:58:04,VALID,1002.21,VALID,0,VALID,89.4573,VALID,0,VALID,24.638,VALID,138,VALID,1.48359,
2010-02-12, 00:59:04,VALID,1002.18,VALID,0,VALID,89.4268,VALID,0,VALID,24.638,VALID,137,VALID,1.76719,
2010-02-12, 01:00:04,VALID,1002.17,VALID,0,VALID,89.3657,VALID,0,VALID,24.6575,VALID,141,VALID,1.94297,
2010-02-12, 01:01:04,VALID,1002.16,VALID,0,VALID,89.8922,VALID,0,VALID,24.6751,VALID,150,VALID,1.95234,
2010-02-12, 01:02:04,VALID,1002.07,VALID,0,VALID,89.2513,VALID,0,VALID,24.677,VALID,147,VALID,2.39531,
2010-02-12, 01:03:04,VALID,1002.1,VALID,0,VALID,88.7783,VALID,0,VALID,24.638,VALID,142,VALID,2.19805,
2010-02-12, 01:04:04,VALID,1002,VALID,0,VALID,88.7325,VALID,0,VALID,24.638,VALID,146,VALID,1.49336,
2010-02-12, 01:05:04,VALID,1001.94,VALID,0,VALID,88.2747,VALID,0,VALID,24.6184,VALID,154,VALID,2.03906,
2010-02-12, 01:06:04,VALID,1001.92,VALID,0,VALID,87.8169,VALID,0,VALID,24.5599,VALID,169,VALID,1.6668,
2010-02-12, 01:07:04,VALID,1001.94,VALID,0,VALID,87.7711,VALID,0,VALID,24.5404,VALID,154,VALID,1.61836,
2010-02-12, 01:08:04,VALID,1001.95,VALID,0,VALID,87.7101,VALID,0,VALID,24.5209,VALID,149,VALID,1.28867,
2010-02-12, 01:09:04,VALID,1001.96,VALID,0,VALID,87.7101,VALID,0,VALID,24.5013,VALID,132,VALID,0.75625,
2010-02-12, 01:10:04,VALID,1001.98,VALID,0,VALID,87.7483,VALID,0,VALID,24.4818,VALID,117,VALID,0.840234,
2010-02-12, 01:11:04,VALID,1002,VALID,0,VALID,87.7635,VALID,0,VALID,24.4428,VALID,118,VALID,0.541016,
2010-02-12, 01:12:04,VALID,1001.99,VALID,0,VALID,87.8398,VALID,0,VALID,24.4019,VALID,116,VALID,0.429688,
2010-02-12, 01:13:04,VALID,1002.04,VALID,0,VALID,87.9237,VALID,0,VALID,24.3842,VALID,116,VALID,0.733203,
2010-02-12, 01:14:04,VALID,1002.02,VALID,0,VALID,88.1221,VALID,0,VALID,24.3452,VALID,116,VALID,0.657812,
2010-02-12, 01:15:04,VALID,1002.03,VALID,0,VALID,88.3434,VALID,0,VALID,24.3257,VALID,116,VALID,0.971875,
2010-02-12, 01:16:04,VALID,1001.98,VALID,0,VALID,88.5265,VALID,0,VALID,24.2866,VALID,117,VALID,0.705859,
2010-02-12, 01:17:04,VALID,1001.95,VALID,0,VALID,88.7172,VALID,0,VALID,24.2671,VALID,117,VALID,0.5125,
2010-02-12, 01:18:04,VALID,1001.87,VALID,0,VALID,88.7706,VALID,0,VALID,24.2281,VALID,119,VALID,0.477344,
2010-02-12, 01:19:04,VALID,1001.83,VALID,0,VALID,88.763,VALID,0,VALID,24.2086,VALID,119,VALID,0.332812,
2010-02-12, 01:20:04,VALID,1001.78,VALID,0,VALID,88.7401,VALID,0,VALID,24.1909,VALID,120,VALID,0.193359,
2010-02-12, 01:21:04,VALID,1001.75,VALID,0,VALID,88.7783,VALID,0,VALID,24.15,VALID,120,VALID,0.101563,
2010-02-12, 01:22:04,VALID,1001.75,VALID,0,VALID,88.8851,VALID,0,VALID,24.111,VALID,120,VALID,0.0800781,
2010-02-12, 01:23:04,VALID,1001.7,VALID,0,VALID,88.8774,VALID,0,VALID,24.0915,VALID,120,VALID,0,
2010-02-12, 01:24:04,VALID,1001.69,VALID,0,VALID,89.0606,VALID,0,VALID,24.072,VALID,120,VALID,0,
2010-02-12, 01:25:04,VALID,1001.68,VALID,0,VALID,89.2894,VALID,0,VALID,24.0525,VALID,120,VALID,0.0148437,
2010-02-12, 01:26:04,VALID,1001.67,VALID,0,VALID,89.0987,VALID,0,VALID,24.0348,VALID,32,VALID,0.48125,
2010-02-12, 01:27:04,VALID,1001.68,VALID,0,VALID,89.1979,VALID,0,VALID,23.9549,VALID,17,VALID,0.464063,
2010-02-12, 01:28:04,VALID,1001.71,VALID,0,VALID,89.4115,VALID,0,VALID,23.9177,VALID,17,VALID,0.328516,
2010-02-12, 01:29:04,VALID,1001.7,VALID,0,VALID,89.4344,VALID,0,VALID,23.8378,VALID,17,VALID,0.239453,
2010-02-12, 01:30:04,VALID,1001.71,VALID,0,VALID,89.732,VALID,0,VALID,23.8201,VALID,17,VALID,0.385938,
2010-02-12, 01:31:04,VALID,1001.69,VALID,0,VALID,89.7091,VALID,0,VALID,23.7793,VALID,11,VALID,0.707812,
2010-02-12, 01:32:04,VALID,1001.65,VALID,0,VALID,90.1058,VALID,0,VALID,23.7207,VALID,359,VALID,0.494141,
2010-02-12, 01:33:04,VALID,1001.63,VALID,0,VALID,90.4491,VALID,0,VALID,23.7207,VALID,358,VALID,0.371484,
2010-02-12, 01:34:04,VALID,1001.64,VALID,0,VALID,90.3881,VALID,0,VALID,23.7207,VALID,358,VALID,0.189453,
2010-02-12, 01:35:04,VALID,1001.6,VALID,0,VALID,90.3118,VALID,0,VALID,23.6817,VALID,358,VALID,0,
2010-02-12, 01:36:04,VALID,1001.59,VALID,0,VALID,90.4949,VALID,0,VALID,23.6622,VALID,358,VALID,0.0179687,
2010-02-12, 01:37:04,VALID,1001.57,VALID,0,VALID,90.6017,VALID,0,VALID,23.6622,VALID,358,VALID,0,
2010-02-12, 01:38:04,VALID,1001.6,VALID,0,VALID,90.617,VALID,0,VALID,23.664,VALID,358,VALID,0,
2010-02-12, 01:39:04,VALID,1001.58,VALID,0,VALID,90.6628,VALID,0,VALID,23.6427,VALID,358,VALID,0,
2010-02-12, 01:40:04,VALID,1001.6,VALID,0,VALID,90.7314,VALID,0,VALID,23.6427,VALID,358,VALID,0,
2010-02-12, 01:41:04,VALID,1001.58,VALID,0,VALID,90.8535,VALID,0,VALID,23.6427,VALID,357,VALID,0,
2010-02-12, 01:42:04,VALID,1001.59,VALID,0,VALID,91.0671,VALID,0,VALID,23.6622,VALID,358,VALID,0.3125,
2010-02-12, 01:43:04,VALID,1001.56,VALID,0,VALID,91.09,VALID,0,VALID,23.7225,VALID,27,VALID,0.554688,
2010-02-12, 01:44:04,VALID,1001.55,VALID,0,VALID,90.9146,VALID,0,VALID,23.6817,VALID,52,VALID,0.335547,
2010-02-12, 01:45:04,VALID,1001.51,VALID,0,VALID,90.8306,VALID,0,VALID,23.6817,VALID,52,VALID,0.155469,
2010-02-12, 01:46:04,VALID,1001.48,VALID,0,VALID,91.0977,VALID,0,VALID,23.6817,VALID,52,VALID,0.372266,
2010-02-12, 01:47:04,VALID,1001.48,VALID,0,VALID,91.2579,VALID,0,VALID,23.7207,VALID,52,VALID,0,
2010-02-12, 01:48:04,VALID,1001.41,VALID,0,VALID,91.0748,VALID,0,VALID,23.7616,VALID,52,VALID,0,
2010-02-12, 01:49:04,VALID,1001.37,VALID,0,VALID,90.884,VALID,0,VALID,23.7012,VALID,52,VALID,0,
2010-02-12, 01:50:04,VALID,1001.38,VALID,0,VALID,91.1816,VALID,0,VALID,23.7616,VALID,52,VALID,0,
2010-02-12, 01:51:04,VALID,1001.38,VALID,0,VALID,91.1053,VALID,0,VALID,23.7616,VALID,52,VALID,0.450781,
2010-02-12, 01:52:04,VALID,1001.37,VALID,0,VALID,91.1892,VALID,0,VALID,23.7597,VALID,55,VALID,0.434766,
2010-02-12, 01:53:04,VALID,1001.37,VALID,0,VALID,91.0214,VALID,0,VALID,23.7402,VALID,55,VALID,0.339453,
2010-02-12, 01:54:04,VALID,1001.35,VALID,0,VALID,91.09,VALID,0,VALID,23.7402,VALID,55,VALID,0.366016,
2010-02-12, 01:55:04,VALID,1001.34,VALID,0,VALID,91.1282,VALID,0,VALID,23.8201,VALID,55,VALID,0.295312,
2010-02-12, 01:56:04,VALID,1001.36,VALID,0,VALID,91.0977,VALID,0,VALID,23.7988,VALID,55,VALID,0.176172,
2010-02-12, 01:57:04,VALID,1001.38,VALID,0,VALID,90.8993,VALID,0,VALID,23.7793,VALID,55,VALID,0.383984,
2010-02-12, 01:58:04,VALID,1001.37,VALID,0,VALID,90.7391,VALID,0,VALID,23.7811,VALID,55,VALID,0.214844,
2010-02-12, 01:59:04,VALID,1001.35,VALID,0,VALID,90.8917,VALID,0,VALID,23.7189,VALID,55,VALID,0.0417969,
2010-02-12, 02:00:04,VALID,1001.36,VALID,0,VALID,90.9069,VALID,0,VALID,23.7384,VALID,55,VALID,0.153906,
2010-02-12, 02:01:04,VALID,1001.32,VALID,0,VALID,90.9298,VALID,0.112286,VALID,23.7189,VALID,55,VALID,0.166406,
2010-02-12, 02:02:04,VALID,1001.34,VALID,0,VALID,90.8993,VALID,0,VALID,23.7189,VALID,44,VALID,0.535547,
2010-02-12, 02:03:04,VALID,1001.33,VALID,0,VALID,90.8917,VALID,0,VALID,23.6994,VALID,44,VALID,0.574219,
2010-02-12, 02:04:04,VALID,1001.35,VALID,0,VALID,90.6704,VALID,0.112286,VALID,23.6604,VALID,44,VALID,0.580469,
2010-02-12, 02:05:04,VALID,1001.37,VALID,0,VALID,90.7467,VALID,0,VALID,23.5823,VALID,29,VALID,0.658984,
2010-02-12, 02:06:04,VALID,1001.36,VALID,0,VALID,90.9909,VALID,0,VALID,23.5628,VALID,23,VALID,0.562891,
2010-02-12, 02:07:04,VALID,1001.39,VALID,0,VALID,90.9756,VALID,0,VALID,23.5451,VALID,23,VALID,0.521094,
2010-02-12, 02:08:04,VALID,1001.37,VALID,0,VALID,91.0214,VALID,0,VALID,23.5238,VALID,23,VALID,0.301562,
2010-02-12, 02:09:04,VALID,1001.37,VALID,0,VALID,90.968,VALID,0,VALID,23.4653,VALID,23,VALID,0.04375,
2010-02-12, 02:10:04,VALID,1001.37,VALID,0,VALID,90.968,VALID,0,VALID,23.4263,VALID,23,VALID,0.0253906,
2010-02-12, 02:11:04,VALID,1001.37,VALID,0,VALID,91.1358,VALID,0.112286,VALID,23.4067,VALID,23,VALID,0.245703,
2010-02-12, 02:12:04,VALID,1001.37,VALID,0,VALID,91.5249,VALID,0.112286,VALID,23.4067,VALID,72,VALID,0.435547,
2010-02-12, 02:13:04,VALID,1001.33,VALID,0,VALID,91.5173,VALID,0,VALID,23.4067,VALID,116,VALID,0.726953,
2010-02-12, 02:14:04,VALID,1001.3,VALID,0,VALID,91.3494,VALID,0,VALID,23.3482,VALID,116,VALID,0.700781,
2010-02-12, 02:15:04,VALID,1001.26,VALID,0,VALID,91.5478,VALID,0,VALID,23.3695,VALID,110,VALID,0.7,
2010-02-12, 02:16:04,VALID,1001.26,VALID,0,VALID,91.7004,VALID,0,VALID,23.389,VALID,97,VALID,0.644922,
2010-02-12, 02:17:04,VALID,1001.24,VALID,0,VALID,91.708,VALID,0,VALID,23.389,VALID,97,VALID,0.485156,
2010-02-12, 02:18:04,VALID,1001.19,VALID,0,VALID,91.7538,VALID,0,VALID,23.389,VALID,97,VALID,0.402734,
2010-02-12, 02:19:04,VALID,1001.19,VALID,0,VALID,91.6088,VALID,0,VALID,23.3695,VALID,97,VALID,0.351563,
2010-02-12, 02:20:04,VALID,1001.16,VALID,0,VALID,91.5478,VALID,0,VALID,23.311,VALID,67,VALID,0.589063,
2010-02-12, 02:21:04,VALID,1001.15,VALID,0,VALID,91.8835,VALID,0,VALID,23.3305,VALID,54,VALID,0.602734,
2010-02-12, 02:22:04,VALID,1001.16,VALID,0,VALID,91.998,VALID,0,VALID,23.35,VALID,54,VALID,0.530469,
2010-02-12, 02:23:04,VALID,1001.14,VALID,0,VALID,91.9293,VALID,0,VALID,23.35,VALID,54,VALID,0.824609,
2010-02-12, 02:24:04,VALID,1001.11,VALID,0,VALID,91.8683,VALID,0,VALID,23.3518,VALID,54,VALID,0.919922,
2010-02-12, 02:25:04,VALID,1001.15,VALID,0,VALID,91.9827,VALID,0,VALID,23.35,VALID,54,VALID,0.914453,
2010-02-12, 02:26:04,VALID,1001.13,VALID,0,VALID,91.9903,VALID,0,VALID,23.3305,VALID,54,VALID,0.913672,
2010-02-12, 02:27:04,VALID,1001.13,VALID,0,VALID,92.0666,VALID,0,VALID,23.3305,VALID,54,VALID,0.911719,
2010-02-12, 02:28:04,VALID,1001.12,VALID,0,VALID,91.8072,VALID,0,VALID,23.311,VALID,52,VALID,0.769141,
2010-02-12, 02:29:04,VALID,1001.11,VALID,0,VALID,91.7462,VALID,0,VALID,23.2524,VALID,50,VALID,0.760938,
2010-02-12, 02:30:04,VALID,1001.08,VALID,0,VALID,91.7614,VALID,0,VALID,23.2134,VALID,50,VALID,0.729297,
2010-02-12, 02:31:04,VALID,1001.11,VALID,0,VALID,91.8911,VALID,0,VALID,23.1744,VALID,50,VALID,0.655859,
2010-02-12, 02:32:04,VALID,1001.09,VALID,0,VALID,91.8606,VALID,0,VALID,23.1549,VALID,50,VALID,0.492578,
2010-02-12, 02:33:04,VALID,1001.11,VALID,0,VALID,91.7309,VALID,0,VALID,23.0964,VALID,50,VALID,0.226563,
2010-02-12, 02:34:04,VALID,1001.07,VALID,0,VALID,91.8301,VALID,0,VALID,23.0573,VALID,50,VALID,0.227344,
2010-02-12, 02:35:04,VALID,1001.07,VALID,0,VALID,92.1658,VALID,0,VALID,23.0573,VALID,50,VALID,0.302344,
2010-02-12, 02:36:04,VALID,1001.04,VALID,0,VALID,92.4557,VALID,0,VALID,23.1354,VALID,50,VALID,0.217578,
2010-02-12, 02:37:04,VALID,1001.06,VALID,0,VALID,92.5015,VALID,0,VALID,23.1549,VALID,50,VALID,0.169141,
2010-02-12, 02:38:04,VALID,1001.07,VALID,0,VALID,92.4939,VALID,0,VALID,23.1531,VALID,47,VALID,0.201172,
2010-02-12, 02:39:04,VALID,1001.06,VALID,0,VALID,92.5473,VALID,0,VALID,23.2134,VALID,47,VALID,0.0984375,
2010-02-12, 02:40:04,VALID,1001.09,VALID,0,VALID,92.5854,VALID,0,VALID,23.2329,VALID,47,VALID,0.173828,
2010-02-12, 02:41:04,VALID,1001.06,VALID,0,VALID,92.6007,VALID,0,VALID,23.2329,VALID,47,VALID,0,
2010-02-12, 02:42:04,VALID,1001.08,VALID,0,VALID,92.5931,VALID,0,VALID,23.2719,VALID,47,VALID,0,
2010-02-12, 02:43:04,VALID,1001.07,VALID,0,VALID,92.5854,VALID,0,VALID,23.2915,VALID,47,VALID,0,
2010-02-12, 02:44:04,VALID,1001.05,VALID,0,VALID,92.5626,VALID,0,VALID,23.2507,VALID,47,VALID,0,
2010-02-12, 02:45:04,VALID,1001.04,VALID,0,VALID,92.5015,VALID,0,VALID,23.2524,VALID,47,VALID,0,
2010-02-12, 02:46:04,VALID,1001.06,VALID,0,VALID,92.4405,VALID,0.112286,VALID,23.2329,VALID,47,VALID,0,
2010-02-12, 02:47:04,VALID,1001.04,VALID,0,VALID,92.4557,VALID,0,VALID,23.1921,VALID,47,VALID,0,
2010-02-12, 02:48:04,VALID,1001.01,VALID,0,VALID,92.4786,VALID,0,VALID,23.2134,VALID,47,VALID,0,
2010-02-12, 02:49:04,VALID,1001.07,VALID,0,VALID,92.5015,VALID,0,VALID,23.1726,VALID,47,VALID,0,
2010-02-12, 02:50:04,VALID,1001.05,VALID,0,VALID,92.5473,VALID,0,VALID,23.1726,VALID,47,VALID,0,
2010-02-12, 02:51:04,VALID,1001.03,VALID,0,VALID,92.5931,VALID,0,VALID,23.1939,VALID,47,VALID,0,
2010-02-12, 02:52:04,VALID,1001.05,VALID,0,VALID,92.616,VALID,0,VALID,23.1939,VALID,47,VALID,0,
2010-02-12, 02:53:04,VALID,1001.05,VALID,0,VALID,92.6083,VALID,0,VALID,23.1726,VALID,47,VALID,0,
2010-02-12, 02:54:04,VALID,1001.08,VALID,0,VALID,92.5702,VALID,0,VALID,23.1744,VALID,47,VALID,0,
2010-02-12, 02:55:04,VALID,1001.07,VALID,0,VALID,92.4634,VALID,0,VALID,23.1141,VALID,47,VALID,0,
2010-02-12, 02:56:04,VALID,1001.05,VALID,0,VALID,92.4405,VALID,0,VALID,23.0769,VALID,47,VALID,0,
2010-02-12, 02:57:04,VALID,1001.07,VALID,0,VALID,92.5626,VALID,0,VALID,23.0573,VALID,47,VALID,0,
2010-02-12, 02:58:04,VALID,1001.06,VALID,0,VALID,92.5549,VALID,0,VALID,23.0183,VALID,47,VALID,0,
2010-02-12, 02:59:04,VALID,1001.11,VALID,0,VALID,92.5778,VALID,0,VALID,22.9776,VALID,47,VALID,0,
2010-02-12, 03:00:04,VALID,1001.1,VALID,0,VALID,92.5931,VALID,0.112286,VALID,22.9776,VALID,47,VALID,0,
2010-02-12, 03:01:04,VALID,1001.11,VALID,0,VALID,92.6617,VALID,0,VALID,22.9988,VALID,47,VALID,0,
2010-02-12, 03:02:04,VALID,1001.14,VALID,0,VALID,92.7304,VALID,0,VALID,22.9793,VALID,47,VALID,0,
2010-02-12, 03:03:04,VALID,1001.13,VALID,0,VALID,92.7151,VALID,0,VALID,22.9793,VALID,47,VALID,0,
2010-02-12, 03:04:04,VALID,1001.11,VALID,0,VALID,92.738,VALID,0,VALID,22.9793,VALID,47,VALID,0,
2010-02-12, 03:05:04,VALID,1001.11,VALID,0,VALID,92.6999,VALID,0,VALID,22.9793,VALID,47,VALID,0,
2010-02-12, 03:06:04,VALID,1001.1,VALID,0,VALID,92.6694,VALID,0.112286,VALID,22.9403,VALID,47,VALID,0,
2010-02-12, 03:07:04,VALID,1001.08,VALID,0,VALID,92.738,VALID,0,VALID,22.9403,VALID,47,VALID,0,
2010-02-12, 03:08:04,VALID,1001.1,VALID,0,VALID,92.7762,VALID,0,VALID,22.9403,VALID,47,VALID,0,
2010-02-12, 03:09:04,VALID,1001.08,VALID,0,VALID,92.7838,VALID,0,VALID,22.9403,VALID,47,VALID,0,
2010-02-12, 03:10:04,VALID,1001.1,VALID,0,VALID,92.8296,VALID,0,VALID,22.9385,VALID,47,VALID,0,
2010-02-12, 03:11:04,VALID,1001.11,VALID,0,VALID,92.8601,VALID,0.112286,VALID,22.9385,VALID,47,VALID,0,
2010-02-12, 03:12:04,VALID,1001.14,VALID,0,VALID,92.7914,VALID,0,VALID,22.9385,VALID,47,VALID,0,
2010-02-12, 03:13:04,VALID,1001.11,VALID,0,VALID,92.738,VALID,0,VALID,22.8995,VALID,47,VALID,0,
2010-02-12, 03:14:04,VALID,1001.1,VALID,0,VALID,92.6846,VALID,0.112286,VALID,22.9013,VALID,47,VALID,0,
2010-02-12, 03:15:04,VALID,1001.1,VALID,0,VALID,92.7075,VALID,0,VALID,22.9013,VALID,47,VALID,0,
2010-02-12, 03:16:04,VALID,1001.05,VALID,0,VALID,92.7457,VALID,0,VALID,22.8605,VALID,47,VALID,0,
2010-02-12, 03:17:04,VALID,1001.05,VALID,0,VALID,92.8296,VALID,0,VALID,22.88,VALID,47,VALID,0,
2010-02-12, 03:18:04,VALID,1001.05,VALID,0,VALID,92.8677,VALID,0.112286,VALID,22.8995,VALID,47,VALID,0,
2010-02-12, 03:19:04,VALID,1001.04,VALID,0,VALID,92.9059,VALID,0,VALID,22.919,VALID,47,VALID,0,
2010-02-12, 03:20:04,VALID,1001.06,VALID,0,VALID,92.8677,VALID,0,VALID,22.8995,VALID,47,VALID,0,
2010-02-12, 03:21:04,VALID,1001.06,VALID,0,VALID,92.9517,VALID,0,VALID,22.9385,VALID,47,VALID,0,
2010-02-12, 03:22:04,VALID,1001.06,VALID,0,VALID,92.944,VALID,0,VALID,22.9581,VALID,47,VALID,0,
2010-02-12, 03:23:04,VALID,1001.09,VALID,0,VALID,92.7991,VALID,0.112286,VALID,22.8995,VALID,47,VALID,0,
2010-02-12, 03:24:04,VALID,1001.08,VALID,0,VALID,92.8143,VALID,0,VALID,22.9013,VALID,47,VALID,0,
2010-02-12, 03:25:04,VALID,1001.09,VALID,0,VALID,92.8754,VALID,0,VALID,22.9013,VALID,47,VALID,0,
2010-02-12, 03:26:04,VALID,1001.06,VALID,0,VALID,92.8754,VALID,0,VALID,22.9013,VALID,47,VALID,0,
2010-02-12, 03:27:04,VALID,1001.08,VALID,0,VALID,92.883,VALID,0.112286,VALID,22.8818,VALID,47,VALID,0,
2010-02-12, 03:28:04,VALID,1001.07,VALID,0,VALID,92.8983,VALID,0,VALID,22.8605,VALID,47,VALID,0,
2010-02-12, 03:29:04,VALID,1001.08,VALID,0,VALID,92.9059,VALID,0,VALID,22.8427,VALID,47,VALID,0,
2010-02-12, 03:30:04,VALID,1001.08,VALID,0,VALID,92.883,VALID,0,VALID,22.8445,VALID,47,VALID,0,
2010-02-12, 03:31:04,VALID,1001.06,VALID,0,VALID,92.8906,VALID,0,VALID,22.8445,VALID,47,VALID,0,
2010-02-12, 03:32:04,VALID,1001.06,VALID,0,VALID,92.8601,VALID,0,VALID,22.7842,VALID,47,VALID,0,
2010-02-12, 03:33:04,VALID,1001.02,VALID,0,VALID,92.9135,VALID,0,VALID,22.8055,VALID,47,VALID,0,
2010-02-12, 03:34:04,VALID,1001.05,VALID,0,VALID,92.9822,VALID,0,VALID,22.8055,VALID,47,VALID,0,
2010-02-12, 03:35:04,VALID,1001,VALID,0,VALID,93.0661,VALID,0,VALID,22.8445,VALID,47,VALID,0,
2010-02-12, 03:36:04,VALID,1000.94,VALID,0,VALID,93.1348,VALID,0,VALID,22.8835,VALID,47,VALID,0,
2010-02-12, 03:37:04,VALID,1000.94,VALID,0,VALID,93.2187,VALID,0,VALID,22.9225,VALID,358,VALID,0,
2010-02-12, 03:38:04,VALID,1000.92,VALID,0,VALID,93.1805,VALID,0,VALID,22.942,VALID,358,VALID,0,
2010-02-12, 03:39:04,VALID,1000.89,VALID,0,VALID,93.1424,VALID,0,VALID,22.942,VALID,358,VALID,0,
2010-02-12, 03:40:04,VALID,1000.93,VALID,0,VALID,93.0814,VALID,0,VALID,22.9225,VALID,358,VALID,0,
2010-02-12, 03:41:04,VALID,1000.96,VALID,0,VALID,92.9822,VALID,0,VALID,22.8835,VALID,358,VALID,0,
2010-02-12, 03:42:04,VALID,1000.96,VALID,0,VALID,92.9745,VALID,0,VALID,22.864,VALID,358,VALID,0,
2010-02-12, 03:43:04,VALID,1001.01,VALID,0,VALID,92.9898,VALID,0,VALID,22.8232,VALID,358,VALID,0,
2010-02-12, 03:44:04,VALID,1001.04,VALID,0,VALID,92.9135,VALID,0,VALID,22.7842,VALID,358,VALID,0,
2010-02-12, 03:45:04,VALID,1001.08,VALID,0,VALID,92.9745,VALID,0,VALID,22.7647,VALID,358,VALID,0,
2010-02-12, 03:46:04,VALID,1001.11,VALID,0,VALID,93.0585,VALID,0,VALID,22.786,VALID,358,VALID,0,
2010-02-12, 03:47:04,VALID,1001.08,VALID,0,VALID,93.028,VALID,0,VALID,22.7647,VALID,358,VALID,0,
2010-02-12, 03:48:04,VALID,1001.08,VALID,0,VALID,93.1424,VALID,0,VALID,22.7842,VALID,358,VALID,0,
2010-02-12, 03:49:04,VALID,1001.06,VALID,0,VALID,93.1271,VALID,0,VALID,22.7842,VALID,358,VALID,0,
2010-02-12, 03:50:04,VALID,1001.01,VALID,0,VALID,93.0356,VALID,0,VALID,22.7842,VALID,358,VALID,0,
2010-02-12, 03:51:04,VALID,1001.01,VALID,0,VALID,92.9517,VALID,0,VALID,22.7452,VALID,358,VALID,0,